EW7100 Weather Reports


Display with metric or nautical units.
time (UTC)temp
F
wind
direction
speed
MPH
gust
MPH
rain 1hr
in
rain 24hr
in
rain mn
in
humidity
%
barometer
mb
20211129104712 40 154 0.0 0.0 0.00 0.00 0.00 43 1020.5
20211129104212 40 154 0.0 0.0 0.00 0.00 0.00 42 1020.6
20211129103712 41 154 0.0 0.0 0.00 0.00 0.00 42 1020.6
20211129103212 41 154 0.0 0.0 0.00 0.00 0.00 42 1020.5
20211129102714 41 154 0.0 0.0 0.00 0.00 0.00 42 1020.6
20211129102212 41 154 0.0 0.0 0.00 0.00 0.00 42 1020.6
20211129101715 41 154 0.0 0.0 0.00 0.00 0.00 42 1020.6
20211129101213 41 154 0.0 0.0 0.00 0.00 0.00 42 1020.5
20211129100713 42 154 0.0 0.0 0.00 0.00 0.00 40 1020.6
20211129100213 42 154 0.0 0.0 0.00 0.00 0.00 40 1020.7
20211129095713 42 154 0.0 0.0 0.00 0.00 0.00 40 1020.7
20211129095212 42 154 0.0 0.0 0.00 0.00 0.00 40 1020.7
20211129094712 43 154 0.0 0.0 0.00 0.00 0.00 39 1020.7
20211129094213 43 154 0.0 0.0 0.00 0.00 0.00 38 1020.7
20211129093712 44 154 0.0 0.0 0.00 0.00 0.00 38 1020.7
20211129093213 44 154 0.0 0.0 0.00 0.00 0.00 38 1020.7
20211129092713 44 154 0.0 0.0 0.00 0.00 0.00 37 1020.7
20211129092213 45 154 0.0 0.0 0.00 0.00 0.00 37 1020.6
20211129091713 45 154 0.0 0.0 0.00 0.00 0.00 37 1020.7
20211129091212 45 154 0.0 0.0 0.00 0.00 0.00 37 1020.7
20211129090712 45 153 0.0 5.0 0.00 0.00 0.00 37 1020.6
20211129090210 45 151 0.0 5.0 0.00 0.00 0.00 37 1020.6
20211129085710 45 152 0.0 0.0 0.00 0.00 0.00 37 1020.6
20211129085211 45 155 0.0 0.0 0.00 0.00 0.00 37 1020.6
20211129084710 45 177 0.0 0.0 0.00 0.00 0.00 37 1020.6
20211129084210 45 180 0.0 0.0 0.00 0.00 0.00 37 1020.5
20211129083710 45 194 0.0 0.0 0.00 0.00 0.00 36 1020.6
20211129083208 45 195 0.0 0.0 0.00 0.00 0.00 35 1020.6
20211129082709 46 195 0.0 0.0 0.00 0.00 0.00 34 1020.6
20211129082208 46 195 0.0 0.0 0.00 0.00 0.00 34 1020.6
20211129081708 45 195 0.0 0.0 0.00 0.00 0.00 35 1020.6
20211129081208 44 186 0.0 0.0 0.00 0.00 0.00 37 1020.6
20211129080708 43 160 0.0 0.0 0.00 0.00 0.00 39 1020.6
20211129080208 43 160 0.0 0.0 0.00 0.00 0.00 39 1020.7
20211129075708 43 160 0.0 0.0 0.00 0.00 0.00 39 1020.7
20211129075209 44 160 0.0 0.0 0.00 0.00 0.00 39 1020.7
20211129074708 44 160 0.0 0.0 0.00 0.00 0.00 39 1020.7
20211129074208 44 160 0.0 0.0 0.00 0.00 0.00 40 1020.9
20211129073708 43 161 0.0 0.0 0.00 0.00 0.00 41 1020.9
20211129073208 42 161 0.0 2.0 0.00 0.00 0.00 42 1020.9
20211129072706 41 161 0.0 2.0 0.00 0.00 0.00 42 1021.0
20211129072206 40 162 0.0 0.0 0.00 0.00 0.00 42 1021.1
20211129071706 40 162 0.0 0.0 0.00 0.00 0.00 41 1021.1
20211129071206 41 162 0.0 0.0 0.00 0.00 0.00 41 1021.1
20211129070706 41 162 0.0 0.0 0.00 0.00 0.00 40 1021.2
20211129070203 41 162 0.0 0.0 0.00 0.00 0.00 40 1021.2
20211129065703 41 162 0.0 0.0 0.00 0.00 0.00 40 1021.3
20211129065202 41 162 0.0 0.0 0.00 0.00 0.00 42 1021.3
20211129064704 40 162 0.0 0.0 0.00 0.00 0.00 42 1021.3
20211129064203 41 162 0.0 0.0 0.00 0.00 0.00 42 1021.5
20211129063700 40 162 0.0 0.0 0.00 0.00 0.00 42 1021.5
20211129063200 40 162 0.0 0.0 0.00 0.00 0.00 42 1021.7
20211129062701 41 162 0.0 0.0 0.00 0.00 0.00 42 1021.6
20211129062159 40 162 0.0 0.0 0.00 0.00 0.00 42 1021.7
20211129061658 41 162 0.0 0.0 0.00 0.00 0.00 41 1021.8
20211129061156 41 162 0.0 0.0 0.00 0.00 0.00 42 1021.7
20211129060656 41 162 0.0 0.0 0.00 0.00 0.00 41 1021.8
20211129060156 42 162 0.0 1.0 0.00 0.00 0.00 41 1021.9
20211129055656 42 162 0.0 1.0 0.00 0.00 0.00 41 1021.9
20211129055156 42 161 0.0 0.0 0.00 0.00 0.00 40 1021.9
20211129054656 42 159 0.0 0.0 0.00 0.00 0.00 40 1021.8
20211129054156 43 159 0.0 0.0 0.00 0.00 0.00 40 1021.8
20211129053657 43 159 0.0 0.0 0.00 0.00 0.00 40 1021.9
20211129053154 43 159 0.0 0.0 0.00 0.00 0.00 40 1022.0
20211129052654 43 159 0.0 0.0 0.00 0.00 0.00 39 1021.8
20211129052152 43 159 0.0 0.0 0.00 0.00 0.00 39 1021.8
20211129051652 43 159 0.0 0.0 0.00 0.00 0.00 40 1021.8
20211129051150 44 159 0.0 0.0 0.00 0.00 0.00 39 1021.9
20211129050650 44 159 0.0 0.0 0.00 0.00 0.00 38 1021.9
20211129050150 44 159 0.0 0.0 0.00 0.00 0.00 37 1021.8
20211129045652 45 159 0.0 0.0 0.00 0.00 0.00 36 1021.9
20211129045150 46 159 0.0 0.0 0.00 0.00 0.00 36 1021.8
20211129044650 46 159 0.0 0.0 0.00 0.00 0.00 35 1021.8
20211129044150 46 159 0.0 0.0 0.00 0.00 0.00 35 1021.8
20211129043650 46 159 0.0 0.0 0.00 0.00 0.00 35 1021.8
20211129043148 46 159 0.0 0.0 0.00 0.00 0.00 36 1021.9
20211129042649 45 159 0.0 0.0 0.00 0.00 0.00 36 1021.9
20211129042148 45 159 0.0 0.0 0.00 0.00 0.00 37 1021.9
20211129041649 46 147 0.0 4.0 0.00 0.00 0.00 36 1021.9
20211129041148 46 147 1.0 5.0 0.00 0.00 0.00 35 1021.9
20211129040647 47 147 0.0 5.0 0.00 0.00 0.00 35 1021.8
20211129040148 47 173 0.0 7.0 0.00 0.00 0.00 34 1021.8
20211129035648 47 147 0.0 7.0 0.00 0.00 0.00 34 1021.8
20211129035148 47 176 0.0 4.0 0.00 0.00 0.00 34 1021.9
20211129034648 47 140 0.0 2.0 0.00 0.00 0.00 35 1021.9
20211129034146 47 138 0.0 0.0 0.00 0.00 0.00 34 1021.9
20211129033647 47 138 0.0 0.0 0.00 0.00 0.00 34 1021.8
20211129033146 48 138 0.0 4.0 0.00 0.00 0.00 33 1021.8
20211129032646 48 138 0.0 4.0 0.00 0.00 0.00 33 1021.8
20211129032146 48 180 0.0 3.0 0.00 0.00 0.00 33 1021.8
20211129031646 48 148 0.0 3.0 0.00 0.00 0.00 32 1021.9
20211129031145 49 167 0.0 0.0 0.00 0.00 0.00 32 1021.8
20211129030646 49 167 0.0 0.0 0.00 0.00 0.00 32 1022.0
20211129030146 48 162 0.0 0.0 0.00 0.00 0.00 33 1022.0
20211129025646 48 162 0.0 0.0 0.00 0.00 0.00 33 1022.0
20211129025144 49 162 0.0 2.0 0.00 0.00 0.00 33 1022.0
20211129024644 49 162 0.0 2.0 0.00 0.00 0.00 33 1022.0
20211129024144 49 163 0.0 0.0 0.00 0.00 0.00 32 1022.3
20211129023644 50 163 0.0 0.0 0.00 0.00 0.00 31 1022.3
20211129023144 50 164 0.0 0.0 0.00 0.00 0.00 31 1022.2
20211129022643 51 164 0.0 0.0 0.00 0.00 0.00 30 1022.2
20211129022144 52 164 0.0 0.0 0.00 0.00 0.00 29 1022.2
20211129021645 53 164 0.0 0.0 0.00 0.00 0.00 28 1022.2
20211129021144 53 164 0.0 0.0 0.00 0.00 0.00 27 1022.2
20211129020644 54 164 0.0 0.0 0.00 0.00 0.00 27 1022.2
20211129020142 54 164 0.0 0.0 0.00 0.00 0.00 27 1022.2
20211129015641 54 164 0.0 0.0 0.00 0.00 0.00 27 1022.0
20211129015142 54 148 0.0 3.0 0.00 0.00 0.00 26 1022.0
20211129014641 55 148 0.0 3.0 0.00 0.00 0.00 26 1022.0
20211129014141 55 213 0.0 4.0 0.00 0.00 0.00 26 1022.0
20211129013643 55 213 0.0 4.0 0.00 0.00 0.00 25 1021.9
20211129013140 56 147 0.0 3.0 0.00 0.00 0.00 24 1021.8
20211129012640 57 147 0.0 4.0 0.00 0.00 0.00 23 1021.8
20211129012139 58 147 0.0 4.0 0.00 0.00 0.00 22 1021.7
20211129011638 59 321 0.0 0.0 0.00 0.00 0.00 20 1021.7
20211129011135 60 321 0.0 0.0 0.00 0.00 0.00 20 1021.7
20211129010635 60 321 0.0 0.0 0.00 0.00 0.00 20 1021.7
20211129010138 61 321 0.0 4.0 0.00 0.00 0.00 19 1021.6
20211129005637 61 321 0.0 4.0 0.00 0.00 0.00 20 1021.6
20211129005136 61 266 0.0 4.0 0.00 0.00 0.00 19 1021.5
20211129004635 61 289 1.0 8.0 0.00 0.00 0.00 19 1021.5
20211129004135 61 314 1.0 10.0 0.00 0.00 0.00 19 1021.3
20211129003637 61 294 1.0 10.0 0.00 0.00 0.00 19 1021.3
20211129003136 61 300 1.0 9.0 0.00 0.00 0.00 19 1021.3
20211129002636 61 246 1.0 9.0 0.00 0.00 0.00 19 1021.5
20211129002138 61 315 1.0 7.0 0.00 0.00 0.00 19 1021.3
20211129001636 61 319 2.0 6.0 0.00 0.00 0.00 19 1021.3
20211129001136 62 318 2.0 6.0 0.00 0.00 0.00 18 1021.3
20211129000634 62 313 1.0 5.0 0.00 0.00 0.00 18 1021.2
20211129000133 62 318 0.0 5.0 0.00 0.00 0.00 18 1021.1
20211128235634 62 304 1.0 5.0 0.00 0.00 0.00 18 1021.1
20211128235131 62 306 1.0 9.0 0.00 0.00 0.00 17 1021.1
20211128234631 63 302 1.0 9.0 0.00 0.00 0.00 17 1021.1
20211128234143 63 304 1.0 7.0 0.00 0.00 0.00 17 1021.0
20211128233629 64 293 1.0 10.0 0.00 0.00 0.00 17 1021.1
20211128233129 64 312 2.0 10.0 0.00 0.00 0.00 16 1021.0
20211128232629 64 239 3.0 15.0 0.00 0.00 0.00 16 1021.0
20211128232130 65 302 3.0 15.0 0.00 0.00 0.00 16 1021.0
20211128231630 65 309 3.0 12.0 0.00 0.00 0.00 16 1020.9
20211128231131 65 318 2.0 12.0 0.00 0.00 0.00 15 1020.9
20211128230630 65 289 3.0 12.0 0.00 0.00 0.00 15 1020.9
20211128230132 66 330 4.0 17.0 0.00 0.00 0.00 15 1020.7
20211128225629 66 318 3.0 17.0 0.00 0.00 0.00 15 1020.6
20211128225130 66 307 2.0 6.0 0.00 0.00 0.00 15 1020.5
20211128224629 67 301 2.0 9.0 0.00 0.00 0.00 15 1020.5
20211128224129 66 325 3.0 12.0 0.00 0.00 0.00 15 1020.5
20211128223630 66 321 2.0 12.0 0.00 0.00 0.00 15 1020.4
20211128223130 66 296 3.0 12.0 0.00 0.00 0.00 15 1020.3
20211128222629 66 290 3.0 12.0 0.00 0.00 0.00 15 1020.3
20211128222129 67 290 3.0 11.0 0.00 0.00 0.00 14 1020.2
20211128221630 67 308 4.0 13.0 0.00 0.00 0.00 14 1020.0
20211128221129 67 300 4.0 17.0 0.00 0.00 0.00 14 1020.0
20211128220629 67 277 5.0 17.0 0.00 0.00 0.00 14 1020.2
20211128220130 68 306 4.0 16.0 0.00 0.00 0.00 13 1020.0
20211128215629 68 308 2.0 14.0 0.00 0.00 0.00 13 1020.2
20211128215131 69 311 1.0 10.0 0.00 0.00 0.00 13 1020.2
20211128214629 69 11 1.0 9.0 0.00 0.00 0.00 13 1020.2
20211128214129 69 323 2.0 9.0 0.00 0.00 0.00 13 1020.0
20211128213629 69 340 1.0 6.0 0.00 0.00 0.00 13 1020.0
20211128213130 70 305 0.0 4.0 0.00 0.00 0.00 12 1019.9
20211128212630 70 296 1.0 7.0 0.00 0.00 0.00 13 1019.9
20211128212129 69 293 1.0 7.0 0.00 0.00 0.00 13 1020.0
20211128211629 69 294 1.0 7.0 0.00 0.00 0.00 12 1020.0
20211128211131 69 296 0.0 3.0 0.00 0.00 0.00 13 1020.0
20211128210627 69 281 1.0 7.0 0.00 0.00 0.00 14 1020.2
20211128210128 69 302 2.0 11.0 0.00 0.00 0.00 13 1020.2
20211128205627 69 300 2.0 11.0 0.00 0.00 0.00 13 1020.2
20211128205127 70 303 2.0 12.0 0.00 0.00 0.00 12 1020.3
20211128204626 70 346 2.0 12.0 0.00 0.00 0.00 13 1020.3
20211128204126 70 296 2.0 14.0 0.00 0.00 0.00 12 1020.3
20211128203625 70 312 4.0 19.0 0.00 0.00 0.00 13 1020.3
20211128203128 69 303 4.0 19.0 0.00 0.00 0.00 13 1020.2
20211128202625 69 288 2.0 14.0 0.00 0.00 0.00 13 1020.3
20211128202125 68 319 0.0 5.0 0.00 0.00 0.00 13 1020.2
20211128201625 67 149 0.0 0.0 0.00 0.00 0.00 12 1020.3
20211128201125 67 149 0.0 0.0 0.00 0.00 0.00 13 1020.3
20211128200625 67 149 0.0 0.0 0.00 0.00 0.00 13 1020.4
20211128200125 66 149 0.0 1.0 0.00 0.00 0.00 13 1020.5
20211128195627 66 149 0.0 1.0 0.00 0.00 0.00 12 1020.4
20211128195125 66 149 0.0 0.0 0.00 0.00 0.00 13 1020.5
20211128194625 65 149 0.0 1.0 0.00 0.00 0.00 13 1020.6
20211128194125 65 145 0.0 6.0 0.00 0.00 0.00 13 1020.5
20211128193624 65 155 0.0 6.0 0.00 0.00 0.00 13 1020.5
20211128193123 65 151 0.0 3.0 0.00 0.00 0.00 14 1020.5
20211128192623 64 151 1.0 5.0 0.00 0.00 0.00 15 1020.6
20211128192123 64 161 1.0 5.0 0.00 0.00 0.00 14 1020.7
20211128191625 64 184 0.0 5.0 0.00 0.00 0.00 13 1020.7
20211128191123 64 163 0.0 6.0 0.00 0.00 0.00 14 1020.7
20211128190621 64 158 0.0 6.0 0.00 0.00 0.00 14 1020.9
20211128190122 63 159 0.0 8.0 0.00 0.00 0.00 14 1021.0
20211128185622 63 159 0.0 8.0 0.00 0.00 0.00 14 1021.1
20211128185121 63 219 1.0 10.0 0.00 0.00 0.00 14 1021.1
20211128184621 62 156 1.0 10.0 0.00 0.00 0.00 15 1021.2
20211128184119 62 211 0.0 3.0 0.00 0.00 0.00 15 1021.2
20211128183621 62 142 0.0 5.0 0.00 0.00 0.00 15 1021.2
20211128183119 62 169 0.0 5.0 0.00 0.00 0.00 15 1021.2
20211128182619 61 178 0.0 4.0 0.00 0.00 0.00 15 1021.3
20211128182119 60 184 1.0 7.0 0.00 0.00 0.00 16 1021.3
20211128181619 60 217 1.0 7.0 0.00 0.00 0.00 18 1021.6
20211128181119 60 200 0.0 6.0 0.00 0.00 0.00 17 1021.8
20211128180619 59 191 0.0 6.0 0.00 0.00 0.00 19 1021.9
20211128180119 59 163 0.0 6.0 0.00 0.00 0.00 18 1022.0
20211128175620 58 189 0.0 0.0 0.00 0.00 0.00 19 1022.2
20211128175117 57 186 0.0 0.0 0.00 0.00 0.00 20 1022.2
20211128174617 57 153 0.0 0.0 0.00 0.00 0.00 20 1022.3
20211128174116 56 155 0.0 0.0 0.00 0.00 0.00 21 1022.3
20211128173618 56 267 0.0 0.0 0.00 0.00 0.00 21 1022.4
20211128173118 55 269 0.0 0.0 0.00 0.00 0.00 22 1022.5
20211128172617 55 269 0.0 0.0 0.00 0.00 0.00 22 1022.4
20211128172117 55 269 0.0 0.0 0.00 0.00 0.00 24 1022.6
20211128171617 54 269 0.0 0.0 0.00 0.00 0.00 25 1022.6
20211128171115 53 269 0.0 0.0 0.00 0.00 0.00 26 1022.6
20211128170615 53 269 0.0 0.0 0.00 0.00 0.00 26 1022.6
20211128170114 52 190 0.0 0.0 0.00 0.00 0.00 27 1022.5
20211128165620 51 190 0.0 0.0 0.00 0.00 0.00 27 1022.6
20211128165115 50 190 0.0 0.0 0.00 0.00 0.00 29 1022.5
20211128164614 49 189 0.0 0.0 0.00 0.00 0.00 30 1022.4
20211128164115 49 189 0.0 0.0 0.00 0.00 0.00 31 1022.4
20211128163616 48 189 0.0 0.0 0.00 0.00 0.00 32 1022.3
20211128163115 47 189 0.0 0.0 0.00 0.00 0.00 34 1022.3
20211128162615 46 189 0.0 0.0 0.00 0.00 0.00 35 1022.2
20211128162115 45 189 0.0 2.0 0.00 0.00 0.00 36 1022.0
20211128161614 44 189 1.0 5.0 0.00 0.00 0.00 37 1022.0
20211128161113 43 200 1.0 6.0 0.00 0.00 0.00 38 1021.8
20211128160613 42 157 1.0 6.0 0.00 0.00 0.00 39 1021.7
20211128160113 41 216 0.0 5.0 0.00 0.00 0.00 41 1021.7
20211128155613 41 137 0.0 5.0 0.00 0.00 0.00 42 1021.7
20211128155114 40 137 1.0 5.0 0.00 0.00 0.00 43 1021.8
20211128154610 39 137 0.0 5.0 0.00 0.00 0.00 44 1021.8
20211128154111 38 136 0.0 3.0 0.00 0.00 0.00 44 1021.8
20211128153611 38 175 0.0 0.0 0.00 0.00 0.00 45 1021.7
20211128153110 37 175 0.0 0.0 0.00 0.00 0.00 46 1021.7
20211128152611 37 216 0.0 7.0 0.00 0.00 0.00 47 1021.7
20211128152111 36 141 1.0 7.0 0.00 0.00 0.00 48 1021.8
20211128151610 36 123 0.0 7.0 0.00 0.00 0.00 49 1021.8
20211128151112 35 161 0.0 0.0 0.00 0.00 0.00 49 1021.8
20211128150611 34 144 0.0 0.0 0.00 0.00 0.00 50 1021.8
20211128150111 34 152 0.0 0.0 0.00 0.00 0.00 50 1021.9
20211128145611 33 152 0.0 3.0 0.00 0.00 0.00 51 1021.9
20211128145110 33 171 1.0 5.0 0.00 0.00 0.00 51 1021.8
20211128144611 33 216 1.0 5.0 0.00 0.00 0.00 52 1021.9
20211128144113 32 171 0.0 4.0 0.00 0.00 0.00 52 1021.8
20211128143610 32 206 0.0 7.0 0.00 0.00 0.00 53 1021.8
20211128143111 32 165 0.0 7.0 0.00 0.00 0.00 53 1021.8
20211128142611 31 171 0.0 0.0 0.00 0.00 0.00 54 1021.7
20211128142111 31 236 0.0 0.0 0.00 0.00 0.00 54 1021.7
20211128141610 31 157 0.0 5.0 0.00 0.00 0.00 54 1021.6
20211128141110 31 220 0.0 5.0 0.00 0.00 0.00 54 1021.7
20211128140611 31 191 0.0 5.0 0.00 0.00 0.00 54 1021.6
20211128140111 31 132 1.0 8.0 0.00 0.00 0.00 55 1021.3
20211128135611 31 134 0.0 8.0 0.00 0.00 0.00 55 1021.2
20211128135110 30 138 0.0 5.0 0.00 0.00 0.00 55 1021.2
20211128134611 30 138 0.0 5.0 0.00 0.00 0.00 55 1021.2
20211128134111 30 138 0.0 0.0 0.00 0.00 0.00 55 1021.3
20211128133611 31 138 1.0 5.0 0.00 0.00 0.00 55 1021.3
20211128133111 31 138 1.0 10.0 0.00 0.00 0.00 55 1021.3
20211128132610 30 217 1.0 10.0 0.00 0.00 0.00 55 1021.3
20211128132110 30 178 0.0 7.0 0.00 0.00 0.00 56 1021.3
20211128131611 30 176 0.0 5.0 0.00 0.00 0.00 56 1021.3
20211128131111 30 135 0.0 5.0 0.00 0.00 0.00 57 1021.2
20211128130612 30 153 1.0 7.0 0.00 0.00 0.00 57 1021.2
20211128130110 30 172 1.0 7.0 0.00 0.00 0.00 56 1021.2
20211128125610 30 130 1.0 7.0 0.00 0.00 0.00 56 1021.1
20211128125110 29 146 1.0 7.0 0.00 0.00 0.00 56 1021.1
20211128124610 29 142 1.0 7.0 0.00 0.00 0.00 56 1021.1
20211128124111 29 166 0.0 5.0 0.00 0.00 0.00 56 1021.2
20211128123610 29 167 0.0 0.0 0.00 0.00 0.00 57 1021.2
20211128123110 29 203 0.0 0.0 0.00 0.00 0.00 57 1021.3
20211128122610 29 203 1.0 5.0 0.00 0.00 0.00 57 1021.3
20211128122110 29 203 1.0 7.0 0.00 0.00 0.00 56 1021.3
20211128121610 29 189 0.0 7.0 0.00 0.00 0.00 57 1021.3
20211128121115 29 205 0.0 5.0 0.00 0.00 0.00 58 1021.5
20211128120610 29 148 0.0 0.0 0.00 0.00 0.00 58 1021.3
20211128120110 29 146 0.0 0.0 0.00 0.00 0.00 58 1021.6
20211128115610 29 146 0.0 4.0 0.00 0.00 0.00 58 1021.8
20211128115108 29 146 0.0 4.0 0.00 0.00 0.00 58 1021.7
20211128114609 29 146 1.0 8.0 0.00 0.00 0.00 57 1021.9
20211128114107 29 157 1.0 8.0 0.00 0.00 0.00 58 1021.9
20211128113606 28 161 0.0 2.0 0.00 0.00 0.00 58 1022.0
20211128113106 28 163 0.0 0.0 0.00 0.00 0.00 59 1022.2
20211128112606 28 163 0.0 0.0 0.00 0.00 0.00 58 1022.2
20211128112106 28 188 0.0 0.0 0.00 0.00 0.00 58 1022.3
20211128111605 28 188 0.0 0.0 0.00 0.00 0.00 59 1022.5
20211128111104 28 188 0.0 0.0 0.00 0.00 0.00 58 1022.5
20211128110604 29 188 0.0 0.0 0.00 0.00 0.00 58 1022.5
20211128110104 28 188 0.0 0.0 0.00 0.00 0.00 58 1022.5
20211128105605 28 188 0.0 0.0 0.00 0.00 0.00 58 1022.5
20211128105103 28 202 0.0 0.0 0.00 0.00 0.00 59 1022.7